[[{"header":{"parameterUnit":"m.s-1","parameterCategory":2,"la1":30.2991,"la2":30.254,"lo1":-89.0895,"lo2":-89.0444,"dy":0.0017,"dx":0.0017,"nx":28,"ny":28,"refTime":"2023-11-03T21:00:00:Z","depth":"0","parameterNumber":2,"parameterNumberName":"U-component_of_CURRENTS"},"data":[0,0,0,0,0,0,0,0,0,0,0,0,0,0,0,0,0,0,0,0,0,0,0,0,0,0,0,0,0,0,0,0,0,0,0,0,0,0,0,0,0,0,0,0,0,0,0,0,0,0,0,0,0,0,0,0,0,0,0.1712,0.1713,0,0.1763,0.1763,0.1764,0.1776,0.1776,0.1776,0.1775,0.1762,0.1762,0.1762,0,0,0,0,0,0,0,0,0,0,0,0,0,0.1644,0.1645,0.1712,0.1713,0.1714,0.1763,0.1763,0.1764,0.1776,0.1776,0.1776,0.1775,0.1762,0.1762,0.1762,0,0,0,0,0,0,0,0,0,0,0,0,0,0.1682,0.1646,0.1712,0.1726,0.1727,0.1763,0.1763,0.1764,0.1776,0.1776,0.1775,0.1775,0.1762,0.1762,0.1762,0.1771,0,0,0.1762,0.1761,0,0,0,0,0,0,0,0,0.168,0.1684,0.1723,0.1725,0.1727,0.1763,0.1735,0.1763,0.1777,0.1758,0.1775,0.1775,0.1757,0.1757,0.1768,0.177,0.177,0.1762,0.1761,0.1761,0.1761,0,0,0,0,0,0,0,0.1677,0.1682,0.1732,0.1724,0.1726,0.1735,0.174,0.174,0.1758,0.1759,0.176,0.1766,0.1757,0.1769,0.1768,0.1769,0.1762,0.1761,0.1761,0.1761,0.1782,0.1783,0,0,0,0,0,0,0.1671,0.168,0.1731,0.1734,0.1702,0.1737,0.1742,0.1752,0.1759,0.1761,0.1767,0.1767,0.1769,0.1768,0.1767,0.1799,0.1761,0.1761,0.1761,0.1782,0.1783,0.1783,0,0,0,0,0,0,0.1669,0.1675,0.1729,0.1708,0.1715,0.1738,0.1749,0.1753,0.1768,0.1766,0.1766,0.1778,0.1769,0.1768,0.1784,0.1798,0.1761,0.1761,0.1781,0.1782,0.1783,0.1849,0,0,0,0,0,0,0.1667,0.1674,0.168,0.1707,0.1716,0.1755,0.175,0.1754,0.1772,0.1773,0.1775,0.1773,0.1768,0.1784,0.1784,0.1797,0.1761,0.178,0.1781,0.1783,0.1846,0.1852,0.1857,0,0,0,0,0,0.1665,0.1673,0.168,0.1686,0.1723,0.1755,0.1761,0.1775,0.1773,0.1785,0.1793,0.1774,0.179,0.1785,0.1784,0.1798,0.178,0.1781,0.1782,0.1843,0.1851,0.1857,0,0,0,0,0,0,0.1638,0.1676,0.1684,0.1701,0.1728,0.1757,0.1767,0.1779,0.1797,0.1795,0.179,0.179,0.1809,0.1793,0.1787,0.1805,0.1778,0.1779,0.1824,0.1831,0.1837,0.1835,0.1761,0,0,0,0,0,0.1637,0.1657,0.1691,0.1704,0.1718,0.1744,0.1758,0.1772,0.1791,0.1799,0.1806,0.1806,0.1814,0.1815,0.1818,0.1831,0.1835,0.1835,0.184,0.1845,0.1843,0.186,0.1867,0.1788,0.1788,0.1788,0,0,0.1626,0.1652,0.166,0.1701,0.172,0.1755,0.1751,0.1777,0.1807,0.1793,0.1829,0.183,0.1823,0.1844,0.1849,0.1832,0.1878,0.1847,0.1852,0.1846,0.1862,0.187,0.1877,0.1789,0.1788,0.1788,0,0,0.1629,0.1642,0.1667,0.1696,0.1735,0.1758,0.1768,0.1806,0.182,0.1856,0.1854,0.1866,0.1878,0.1882,0.1883,0.1917,0.191,0.1912,0.1937,0.1955,0.1962,0.1968,0.2021,0.2031,0.191,0.191,0.1911,0,0.1617,0.1657,0.1677,0.1715,0.1742,0.1762,0.18,0.1822,0.1863,0.1878,0.1871,0.1902,0.1897,0.1922,0.1935,0.1931,0.195,0.1916,0.1964,0.1969,0.1974,0.2026,0.2037,0.1914,0.1913,0.1913,0.1913,0,0.1649,0.1681,0.1697,0.1757,0.1785,0.1818,0.1856,0.1883,0.1901,0.1925,0.1956,0.1958,0.1973,0.1972,0.1966,0.1997,0.2006,0.1975,0.195,0.1987,0.2039,0.2049,0.1919,0.1917,0.1916,0.1916,0,0,0.1631,0.1706,0.1715,0.1748,0.1813,0.184,0.1885,0.1936,0.1963,0.1991,0.2024,0.204,0.2039,0.2038,0.203,0.2038,0.2104,0.2023,0.2023,0.2083,0.2177,0.2276,0.2296,0.2084,0.2085,0.2086,0.2214,0,0.1657,0.1731,0.1763,0.1829,0.1871,0.1902,0.1942,0.1984,0.2014,0.205,0.2052,0.2078,0.2065,0.207,0.2084,0.2094,0.2126,0.2074,0.2125,0.2127,0.2216,0.2308,0.2302,0.2423,0.2224,0.2225,0.2226,0,0.1688,0.1739,0.1805,0.1874,0.1892,0.1926,0.1988,0.2027,0.2074,0.2094,0.212,0.2128,0.2161,0.2126,0.2187,0.2158,0.2178,0.2182,0.2186,0.2256,0.2243,0.2346,0.2448,0.2339,0.2241,0.2239,0.2238,0,0.1685,0.1767,0.1819,0.1846,0.1925,0.1946,0.1981,0.2036,0.2072,0.2116,0.215,0.2184,0.2209,0.2229,0.2274,0.2228,0.2345,0.2279,0.2394,0.2402,0.2395,0.2401,0.24,0.2322,0.2322,0.2322,0.2321,0,0.1709,0.1752,0.1815,0.1848,0.1896,0.1945,0.1994,0.2028,0.2085,0.214,0.2168,0.2225,0.2232,0.2305,0.2315,0.2428,0.2394,0.2432,0.2449,0.2424,0.2431,0.2332,0.2284,0.2326,0.2325,0.2324,0.2324,0,0.1697,0.1747,0.1803,0.1876,0.1896,0.1922,0.1996,0.2031,0.2093,0.2164,0.2182,0.2273,0.2388,0.2436,0.2492,0.251,0.2524,0.2615,0.2616,0.2631,0.2624,0.2581,0.2534,0.2447,0.2757,0.276,0.2763,0,0.1698,0.1728,0.1802,0.1825,0.1853,0.1904,0.1938,0.2013,0.2056,0.2206,0.2237,0.2382,0.249,0.2662,0.2739,0.2838,0.2666,0.2854,0.2755,0.2663,0.2625,0.2465,0.238,0.278,0.2782,0.2785,0.2786,0,0.1697,0.1716,0.1762,0.1801,0.1836,0.1882,0.1937,0.1974,0.2078,0.2169,0.2312,0.2419,0.2654,0.2777,0.2934,0.2973,0.2735,0.2905,0.2782,0.2647,0.2495,0.2406,0.2672,0.2806,0.2804,0.2803,0.2802,0.2801,0.1684,0.1701,0.1749,0.1779,0.1817,0.1846,0.1865,0.195,0.2038,0.2167,0.2305,0.2476,0.2712,0.2962,0.298,0.3018,0.2922,0.292,0.2883,0.2732,0.2623,0.2976,0.3141,0.3141,0.3141,0.3141,0.3141,0,0.1672,0.17,0.1726,0.1759,0.1768,0.1805,0.1857,0.1871,0.1963,0.2143,0.2283,0.2572,0.273,0.2879,0.3058,0.2987,0.2782,0.2878,0.2598,0.2516,0.2822,0.2796,0.2926,0.2926,0.2926,0.2926,0.2926,0.2927,0.1677,0.1695,0.1706,0.1709,0.1723,0.1718,0.1737,0.1782,0.1886,0.2083,0.2277,0.244,0.2714,0.292,0.2919,0.2855,0.2562,0.2534,0.2408,0.2586,0.2582,0.2578,0.2537,0.2611,0.2611,0.1993,0.1989,0.1986]},{"header":{"parameterUnit":"m.s-1","parameterCategory":2,"la1":30.2991,"la2":30.254,"lo1":-89.0895,"lo2":-89.0444,"dy":0.0017,"dx":0.0017,"nx":28,"ny":28,"refTime":"2023-11-03T21:00:00:Z","depth":"0","parameterNumber":3,"parameterNumberName":"V-component_of_CURRENTS"},"data":[0,0,0,0,0,0,0,0,0,0,0,0,0,0,0,0,0,0,0,0,0,0,0,0,0,0,0,0,0,0,0,0,0,0,0,0,0,0,0,0,0,0,0,0,0,0,0,0,0,0,0,0,0,0,0,0,0,0,-0.072,-0.072,0,-0.0759,-0.0759,-0.076,-0.0796,-0.0796,-0.0797,-0.0797,-0.0914,-0.0917,-0.092,0,0,0,0,0,0,0,0,0,0,0,0,0,-0.073,-0.073,-0.072,-0.072,-0.0721,-0.0759,-0.0759,-0.076,-0.0796,-0.0796,-0.0797,-0.0797,-0.0913,-0.0916,-0.092,0,0,0,0,0,0,0,0,0,0,0,0,0,-0.0744,-0.0729,-0.072,-0.0742,-0.0744,-0.0758,-0.0759,-0.076,-0.0796,-0.0796,-0.0797,-0.0797,-0.0912,-0.0916,-0.092,-0.0937,0,0,-0.0933,-0.0935,0,0,0,0,0,0,0,0,-0.0743,-0.0744,-0.0738,-0.0741,-0.0743,-0.0772,-0.0806,-0.0823,-0.0796,-0.0778,-0.0797,-0.0797,-0.0872,-0.088,-0.0887,-0.0943,-0.0948,-0.0934,-0.0936,-0.0938,-0.0939,0,0,0,0,0,0,0,-0.0742,-0.0743,-0.0737,-0.0739,-0.0742,-0.0768,-0.077,-0.0809,-0.0825,-0.0779,-0.0782,-0.0784,-0.0875,-0.0883,-0.089,-0.0949,-0.0933,-0.0937,-0.094,-0.0942,-0.1044,-0.1044,0,0,0,0,0,0,-0.0731,-0.0741,-0.0735,-0.0738,-0.0743,-0.0767,-0.077,-0.0763,-0.0823,-0.0831,-0.0783,-0.0785,-0.0875,-0.0885,-0.0895,-0.0926,-0.0938,-0.0942,-0.0944,-0.1044,-0.1044,-0.1044,0,0,0,0,0,0,-0.0731,-0.073,-0.0734,-0.074,-0.0742,-0.0766,-0.0759,-0.0764,-0.0772,-0.0824,-0.0835,-0.0786,-0.0876,-0.0889,-0.0922,-0.093,-0.0944,-0.0948,-0.1044,-0.1044,-0.1044,-0.0983,0,0,0,0,0,0,-0.0731,-0.0729,-0.0721,-0.0739,-0.0741,-0.0735,-0.0758,-0.0764,-0.0772,-0.0775,-0.083,-0.0841,-0.0877,-0.0915,-0.0926,-0.0936,-0.0951,-0.1043,-0.1044,-0.1044,-0.0985,-0.0981,-0.0978,0,0,0,0,0,-0.0731,-0.0709,-0.072,-0.072,-0.0729,-0.0734,-0.0738,-0.0758,-0.0771,-0.0769,-0.0805,-0.084,-0.0925,-0.0918,-0.0931,-0.0943,-0.1043,-0.1044,-0.1044,-0.0987,-0.0982,-0.0978,0,0,0,0,0,0,-0.0697,-0.0711,-0.0724,-0.0704,-0.0718,-0.074,-0.0736,-0.0754,-0.0779,-0.0784,-0.0836,-0.085,-0.0882,-0.092,-0.091,-0.0974,-0.0993,-0.0996,-0.0945,-0.0941,-0.0938,-0.0917,-0.0955,0,0,0,0,0,-0.0689,-0.0682,-0.07,-0.0684,-0.0689,-0.0714,-0.0719,-0.0734,-0.0758,-0.0769,-0.0808,-0.0854,-0.0893,-0.0921,-0.0957,-0.0991,-0.1006,-0.101,-0.1007,-0.1004,-0.0996,-0.1019,-0.1016,-0.1045,-0.1045,-0.1045,0,0,-0.067,-0.0677,-0.0673,-0.0679,-0.069,-0.0694,-0.0718,-0.0719,-0.0731,-0.078,-0.0804,-0.0839,-0.0897,-0.093,-0.095,-0.0965,-0.1001,-0.1004,-0.1001,-0.0995,-0.1019,-0.1016,-0.1013,-0.1046,-0.1046,-0.1046,0,0,-0.0629,-0.0637,-0.0621,-0.0633,-0.0648,-0.067,-0.0669,-0.0692,-0.0711,-0.0736,-0.0775,-0.0805,-0.0871,-0.0907,-0.0937,-0.0938,-0.0975,-0.0963,-0.0939,-0.0961,-0.0958,-0.0956,-0.0955,-0.0953,-0.097,-0.097,-0.097,0,-0.0607,-0.0596,-0.0617,-0.0609,-0.062,-0.0657,-0.0653,-0.0675,-0.0709,-0.0722,-0.0737,-0.0814,-0.0858,-0.0901,-0.0903,-0.093,-0.0942,-0.0947,-0.0954,-0.0953,-0.0951,-0.0951,-0.095,-0.0967,-0.0967,-0.0968,-0.0968,0,-0.0562,-0.056,-0.055,-0.0563,-0.0576,-0.0575,-0.0614,-0.0628,-0.0659,-0.0686,-0.0722,-0.0773,-0.0818,-0.0843,-0.0877,-0.09,-0.0909,-0.0937,-0.0958,-0.0944,-0.0946,-0.0945,-0.0963,-0.0964,-0.0965,-0.0965,0,0,-0.0495,-0.0517,-0.0513,-0.0521,-0.0556,-0.0559,-0.0581,-0.061,-0.0616,-0.066,-0.067,-0.0737,-0.0759,-0.0794,-0.084,-0.0865,-0.0863,-0.0898,-0.09,-0.0884,-0.0895,-0.0846,-0.0842,-0.0895,-0.0895,-0.0895,-0.0893,0,-0.0458,-0.0443,-0.0467,-0.0465,-0.0468,-0.0514,-0.0529,-0.0561,-0.0595,-0.0612,-0.067,-0.0696,-0.0746,-0.076,-0.0794,-0.0843,-0.0863,-0.086,-0.0922,-0.0923,-0.0872,-0.084,-0.0767,-0.0754,-0.0893,-0.0893,-0.0893,0,-0.0406,-0.0412,-0.04,-0.043,-0.0432,-0.0438,-0.0469,-0.0486,-0.0527,-0.0549,-0.0587,-0.0629,-0.0672,-0.0713,-0.0785,-0.0782,-0.0831,-0.0869,-0.0871,-0.0846,-0.0874,-0.0795,-0.0749,-0.0907,-0.0893,-0.0893,-0.0893,0,-0.0354,-0.0364,-0.0358,-0.0367,-0.0401,-0.0404,-0.0425,-0.0461,-0.0461,-0.0503,-0.0494,-0.0568,-0.0583,-0.0662,-0.0736,-0.0766,-0.0798,-0.0853,-0.0854,-0.085,-0.0809,-0.0801,-0.091,-0.0898,-0.0898,-0.0898,-0.0898,0,-0.0308,-0.0301,-0.0332,-0.0328,-0.0312,-0.0358,-0.0342,-0.0368,-0.0388,-0.0352,-0.0451,-0.0421,-0.0571,-0.0608,-0.07,-0.0751,-0.077,-0.083,-0.0843,-0.0784,-0.0775,-0.0929,-0.1029,-0.0898,-0.0898,-0.0898,-0.0898,0,-0.0244,-0.0265,-0.0257,-0.0286,-0.0283,-0.0272,-0.0273,-0.0254,-0.0289,-0.0241,-0.0244,-0.0308,-0.0344,-0.0475,-0.0584,-0.0679,-0.0812,-0.0769,-0.0673,-0.0675,-0.0834,-0.0932,-0.1026,-0.1094,-0.0777,-0.0776,-0.0775,0,-0.0208,-0.0199,-0.0207,-0.0185,-0.0192,-0.018,-0.0155,-0.0192,-0.0155,-0.0138,-0.009,-0.0132,-0.0099,-0.0247,-0.042,-0.0559,-0.0735,-0.062,-0.0672,-0.0814,-0.0935,-0.1009,-0.1067,-0.0592,-0.059,-0.0588,-0.0586,0,-0.014,-0.0144,-0.0133,-0.0088,-0.0058,-0.0028,0.0006,0.0056,0.0053,0.0131,0.0241,0.0266,0.0108,0.0016,-0.0226,-0.0348,-0.0709,-0.0582,-0.0764,-0.0817,-0.087,-0.0949,-0.0621,-0.0568,-0.057,-0.0571,-0.0572,-0.0573,-0.0074,-0.0044,-0.0018,0.0033,0.0073,0.0148,0.0233,0.03,0.043,0.0597,0.056,0.0695,0.0417,0.0119,-0.0116,-0.0516,-0.0572,-0.064,-0.0749,-0.0813,-0.0874,-0.0486,-0.0432,-0.0433,-0.0434,-0.0434,-0.0435,0,0.0031,0.0066,0.0108,0.0192,0.0279,0.0259,0.0376,0.0497,0.0737,0.0878,0.1033,0.1038,0.0705,0.0275,-0.028,-0.0615,-0.0777,-0.0823,-0.0941,-0.0998,-0.0672,-0.066,-0.0609,-0.0609,-0.0609,-0.0609,-0.0609,-0.0608,0.0097,0.0177,0.0199,0.0377,0.0446,0.0598,0.0694,0.0874,0.1018,0.1303,0.1452,0.1508,0.1153,0.0088,-0.0696,-0.0893,-0.1169,-0.1181,-0.1372,-0.1187,-0.118,-0.1173,-0.1188,-0.1249,-0.1249,-0.1631,-0.1635,-0.1638]}],[{"header":{"parameterUnit":"m.s-1","parameterCategory":2,"la1":30.2991,"la2":30.254,"lo1":-89.0895,"lo2":-89.0444,"dy":0.0017,"dx":0.0017,"nx":28,"ny":28,"refTime":"2023-11-03T21:00:00:Z","depth":"2","parameterNumber":2,"parameterNumberName":"U-component_of_CURRENTS"},"data":[0,0,0,0,0,0,0,0,0,0,0,0,0,0,0,0,0,0,0,0,0,0,0,0,0,0,0,0,0,0,0,0,0,0,0,0,0,0,0,0,0,0,0,0,0,0,0,0,0,0,0,0,0,0,0,0,0,0,0.1729,0.1731,0,0.1777,0.1777,0.1777,0.1776,0.1776,0.1776,0.1776,0.185,0.1852,0.1854,0,0,0,0,0,0,0,0,0,0,0,0,0,0.1616,0.1618,0.1729,0.1731,0.1732,0.1777,0.1777,0.1777,0.1776,0.1776,0.1776,0.1776,0.1849,0.1852,0.1854,0,0,0,0,0,0,0,0,0,0,0,0,0,0.1658,0.1618,0.1729,0.1742,0.1745,0.1777,0.1777,0.1777,0.1776,0.1776,0.1776,0.1776,0.1849,0.1851,0.1854,0.1871,0,0,0.1863,0.1864,0,0,0,0,0,0,0,0,0.1656,0.1661,0.1739,0.1742,0.1744,0.1777,0.1764,0.1812,0.1776,0.1757,0.1776,0.1776,0.1833,0.1837,0.1835,0.1874,0.1878,0.1863,0.1865,0.1866,0.1867,0,0,0,0,0,0,0,0.1653,0.1659,0.1741,0.1741,0.1744,0.1739,0.1744,0.1773,0.1789,0.1758,0.176,0.1777,0.1833,0.1832,0.1837,0.1879,0.1863,0.1866,0.1868,0.1869,0.1971,0.1972,0,0,0,0,0,0,0.1663,0.1657,0.1739,0.1743,0.1707,0.1742,0.1747,0.1761,0.1788,0.1794,0.1777,0.1777,0.1827,0.1834,0.184,0.1904,0.1866,0.1869,0.1871,0.197,0.1972,0.1973,0,0,0,0,0,0,0.166,0.167,0.1738,0.1707,0.1716,0.1745,0.1759,0.1762,0.1773,0.1803,0.1808,0.1788,0.1827,0.1836,0.1885,0.1906,0.187,0.1873,0.1969,0.1971,0.1972,0.2006,0,0,0,0,0,0,0.1657,0.1668,0.1677,0.1707,0.1718,0.1763,0.176,0.1763,0.1787,0.1787,0.1815,0.182,0.1828,0.1881,0.1888,0.1909,0.1875,0.1968,0.197,0.1972,0.2004,0.2009,0.2013,0,0,0,0,0,0.1652,0.1666,0.1677,0.1687,0.1731,0.1764,0.1768,0.1784,0.1787,0.1793,0.1822,0.182,0.1897,0.1885,0.1893,0.1915,0.1967,0.1969,0.1972,0.2002,0.2008,0.2013,0,0,0,0,0,0,0.1616,0.1669,0.1681,0.1708,0.1739,0.1767,0.1778,0.1792,0.1817,0.1823,0.1841,0.185,0.1897,0.1904,0.1889,0.1949,0.1928,0.1932,0.1949,0.1955,0.1959,0.1957,0.1878,0,0,0,0,0,0.1616,0.164,0.1686,0.1706,0.1725,0.1753,0.1769,0.1785,0.1816,0.1826,0.185,0.1878,0.191,0.1931,0.1954,0.1996,0.2007,0.2012,0.2016,0.202,0.2023,0.2043,0.205,0.198,0.198,0.198,0,0,0.1608,0.1641,0.1653,0.1701,0.1723,0.1762,0.1761,0.1794,0.183,0.1833,0.1883,0.1897,0.1924,0.1966,0.1987,0.1978,0.2054,0.2023,0.2026,0.2027,0.2046,0.2053,0.2059,0.1982,0.1981,0.1981,0,0,0.1609,0.1633,0.1658,0.169,0.1741,0.1767,0.1782,0.1824,0.1844,0.1896,0.1906,0.1936,0.1986,0.2005,0.2023,0.2069,0.2075,0.2074,0.21,0.212,0.2126,0.2131,0.2187,0.2196,0.2078,0.2078,0.2078,0,0.1597,0.1641,0.1667,0.1706,0.1745,0.1775,0.1819,0.1845,0.1897,0.1926,0.1919,0.1988,0.2005,0.206,0.2071,0.2079,0.2101,0.2078,0.2125,0.213,0.2135,0.2191,0.2201,0.208,0.208,0.208,0.2079,0,0.1623,0.1663,0.1682,0.1747,0.1785,0.1826,0.1882,0.1917,0.1948,0.1977,0.2033,0.2048,0.2087,0.2094,0.21,0.2144,0.2155,0.2127,0.211,0.2144,0.2201,0.2212,0.2083,0.2082,0.2082,0.2081,0,0,0.1596,0.1684,0.1693,0.1736,0.1817,0.1852,0.1921,0.1992,0.2035,0.2069,0.2118,0.2158,0.2153,0.2171,0.2172,0.2185,0.2243,0.2171,0.2171,0.2226,0.2319,0.2305,0.2315,0.2219,0.222,0.2221,0.2357,0,0.1615,0.1693,0.1736,0.1816,0.187,0.1926,0.198,0.2045,0.2096,0.2144,0.2165,0.2205,0.2187,0.22,0.2213,0.2234,0.2266,0.2211,0.2279,0.2282,0.2262,0.2324,0.2114,0.2214,0.2367,0.2369,0.237,0,0.1638,0.1695,0.1778,0.187,0.1895,0.1936,0.204,0.2093,0.2169,0.2201,0.2244,0.226,0.2306,0.2262,0.2331,0.2298,0.2316,0.2323,0.2328,0.2306,0.2285,0.2198,0.2226,0.2387,0.2385,0.2384,0.2383,0,0.1629,0.1726,0.1796,0.1831,0.1933,0.1972,0.202,0.2108,0.2162,0.2235,0.2278,0.2324,0.2356,0.2374,0.2415,0.2374,0.2485,0.243,0.2445,0.2447,0.2276,0.226,0.2475,0.2474,0.2474,0.2474,0.2473,0,0.1645,0.1697,0.179,0.1828,0.1897,0.1966,0.2036,0.2092,0.2172,0.2234,0.2294,0.2353,0.238,0.2451,0.2456,0.2508,0.2531,0.2472,0.2478,0.2287,0.2271,0.241,0.2401,0.2479,0.2478,0.2477,0.2476,0,0.1623,0.1686,0.1766,0.1866,0.1896,0.1941,0.2036,0.2079,0.2168,0.2253,0.2279,0.2398,0.2494,0.2547,0.2603,0.2577,0.2611,0.2622,0.2422,0.2401,0.2551,0.2543,0.2645,0.2646,0.2646,0.2647,0.2647,0,0.1623,0.1666,0.1777,0.1808,0.1848,0.1921,0.1961,0.2059,0.2107,0.2281,0.2309,0.2457,0.2519,0.2638,0.2623,0.2659,0.2689,0.2492,0.2358,0.2573,0.2569,0.2559,0.2549,0.2166,0.2162,0.2159,0.2157,0,0.1626,0.166,0.1718,0.1779,0.1825,0.1884,0.1946,0.1987,0.2106,0.2181,0.229,0.2362,0.2495,0.2441,0.252,0.2501,0.2462,0.2434,0.2709,0.2154,0.213,0.2123,0.2128,0.213,0.2133,0.2135,0.2136,0.2137,0.1621,0.1651,0.1714,0.1762,0.18,0.1831,0.1865,0.1937,0.2007,0.2092,0.2173,0.221,0.2264,0.2266,0.2235,0.2223,0.2368,0.2249,0.2253,0.2262,0.2181,0.2159,0.2152,0.2155,0.2157,0.2159,0.2161,0,0.1634,0.1662,0.1693,0.1747,0.1754,0.1792,0.1848,0.1862,0.1927,0.1965,0.2006,0.1837,0.1845,0.1929,0.1857,0.1872,0.1797,0.1815,0.1687,0.1717,0.1742,0.1629,0.1457,0.1454,0.1452,0.145,0,0,0.1654,0.1681,0.1692,0.1702,0.1721,0.1735,0.1761,0.1788,0.1809,0.1711,0.1678,0.1759,0.1862,0.162,0.1611,0.1528,0.1602,0.1473,0.2042,0.1921,0.1943,0.2006,0.1869,0,0,0,0,0]},{"header":{"parameterUnit":"m.s-1","parameterCategory":2,"la1":30.2991,"la2":30.254,"lo1":-89.0895,"lo2":-89.0444,"dy":0.0017,"dx":0.0017,"nx":28,"ny":28,"refTime":"2023-11-03T21:00:00:Z","depth":"2","parameterNumber":3,"parameterNumberName":"V-component_of_CURRENTS"},"data":[0,0,0,0,0,0,0,0,0,0,0,0,0,0,0,0,0,0,0,0,0,0,0,0,0,0,0,0,0,0,0,0,0,0,0,0,0,0,0,0,0,0,0,0,0,0,0,0,0,0,0,0,0,0,0,0,0,0,-0.0163,-0.0164,0,-0.0197,-0.0196,-0.0196,-0.0218,-0.0219,-0.022,-0.0221,-0.0378,-0.0382,-0.0385,0,0,0,0,0,0,0,0,0,0,0,0,0,-0.011,-0.011,-0.0162,-0.0164,-0.0165,-0.0197,-0.0196,-0.0196,-0.0218,-0.0219,-0.022,-0.0221,-0.0377,-0.0381,-0.0385,0,0,0,0,0,0,0,0,0,0,0,0,0,-0.0129,-0.011,-0.0162,-0.0186,-0.0189,-0.0197,-0.0196,-0.0196,-0.0218,-0.0219,-0.022,-0.0222,-0.0376,-0.0381,-0.0386,-0.039,0,0,-0.0401,-0.0403,0,0,0,0,0,0,0,0,-0.0128,-0.013,-0.0181,-0.0184,-0.0188,-0.0212,-0.0236,-0.027,-0.0217,-0.0198,-0.0221,-0.0222,-0.0339,-0.0347,-0.0336,-0.0397,-0.0404,-0.0402,-0.0405,-0.0407,-0.0408,0,0,0,0,0,0,0,-0.0127,-0.0129,-0.0168,-0.0183,-0.0187,-0.0193,-0.0196,-0.0241,-0.0256,-0.02,-0.0204,-0.022,-0.034,-0.0331,-0.0341,-0.0406,-0.0401,-0.0406,-0.0409,-0.0411,-0.0537,-0.0537,0,0,0,0,0,0,-0.0138,-0.0128,-0.0167,-0.0169,-0.017,-0.0194,-0.0197,-0.0196,-0.0253,-0.0264,-0.0219,-0.0221,-0.0322,-0.0335,-0.0347,-0.0411,-0.0407,-0.0412,-0.0414,-0.0537,-0.0537,-0.0537,0,0,0,0,0,0,-0.0137,-0.014,-0.0165,-0.0157,-0.0162,-0.0194,-0.0192,-0.0196,-0.0205,-0.0268,-0.028,-0.0227,-0.0324,-0.034,-0.0414,-0.0416,-0.0414,-0.0418,-0.0536,-0.0537,-0.0537,-0.0504,0,0,0,0,0,0,-0.0134,-0.0139,-0.0141,-0.0157,-0.0163,-0.016,-0.0192,-0.0196,-0.0216,-0.0219,-0.0279,-0.0293,-0.0326,-0.0406,-0.0419,-0.0423,-0.0422,-0.0536,-0.0536,-0.0537,-0.0505,-0.0504,-0.0502,0,0,0,0,0,-0.0132,-0.0127,-0.014,-0.0146,-0.0164,-0.016,-0.0161,-0.0185,-0.0216,-0.02,-0.0271,-0.0292,-0.0418,-0.0411,-0.0426,-0.0431,-0.0536,-0.0536,-0.0537,-0.0505,-0.0504,-0.0502,0,0,0,0,0,0,-0.0104,-0.013,-0.0144,-0.0147,-0.0152,-0.0167,-0.0167,-0.0189,-0.0226,-0.0252,-0.0309,-0.0328,-0.0391,-0.0417,-0.0408,-0.0468,-0.0475,-0.0479,-0.0446,-0.0445,-0.0444,-0.0417,-0.0426,0,0,0,0,0,-0.01,-0.01,-0.0123,-0.0122,-0.0127,-0.0149,-0.0157,-0.0175,-0.0215,-0.023,-0.0278,-0.0339,-0.0398,-0.0429,-0.0476,-0.0515,-0.0523,-0.0523,-0.0522,-0.0521,-0.0508,-0.054,-0.054,-0.054,-0.054,-0.054,0,0,-0.0092,-0.0106,-0.0108,-0.0116,-0.0124,-0.0122,-0.0154,-0.0165,-0.0179,-0.0248,-0.0285,-0.0343,-0.041,-0.0455,-0.0483,-0.0482,-0.0522,-0.0522,-0.052,-0.0508,-0.054,-0.054,-0.054,-0.054,-0.054,-0.054,0,0,-0.0067,-0.0083,-0.0074,-0.0075,-0.0097,-0.011,-0.0117,-0.0141,-0.0165,-0.0209,-0.0273,-0.0332,-0.0402,-0.0447,-0.0484,-0.0503,-0.0519,-0.0518,-0.0487,-0.0518,-0.0518,-0.0518,-0.0508,-0.0508,-0.0511,-0.0511,-0.0511,0,-0.006,-0.0048,-0.0068,-0.0058,-0.0065,-0.0105,-0.0097,-0.0121,-0.017,-0.0196,-0.0219,-0.033,-0.0392,-0.0458,-0.0469,-0.0499,-0.0507,-0.0488,-0.0515,-0.0515,-0.0516,-0.0506,-0.0506,-0.0509,-0.0509,-0.051,-0.051,0,-0.0023,-0.0019,-0.0011,-0.0013,-0.0019,-0.0016,-0.0059,-0.0073,-0.0118,-0.0152,-0.022,-0.0298,-0.0357,-0.0389,-0.0443,-0.0482,-0.0482,-0.0514,-0.0514,-0.0513,-0.0503,-0.0504,-0.0507,-0.0508,-0.0508,-0.0508,0,0,0.0007,0.0013,0.0015,0.0026,0.0001,0.0006,-0.0022,-0.0049,-0.0065,-0.0124,-0.015,-0.0256,-0.0295,-0.0339,-0.0407,-0.044,-0.0459,-0.0477,-0.0479,-0.0457,-0.0498,-0.0469,-0.0467,-0.0502,-0.0502,-0.0502,-0.0482,0,0.0043,0.0081,0.0061,0.0086,0.0103,0.0061,0.0056,0.0015,-0.0036,-0.0069,-0.0164,-0.0219,-0.0279,-0.0314,-0.0359,-0.0438,-0.0462,-0.046,-0.051,-0.051,-0.0478,-0.0468,-0.0459,-0.0439,-0.0482,-0.0482,-0.0482,0,0.0082,0.0105,0.0135,0.0152,0.0155,0.0152,0.0134,0.0119,0.0049,0.001,-0.0061,-0.0137,-0.0211,-0.0266,-0.0358,-0.0354,-0.0421,-0.0474,-0.0475,-0.0458,-0.0483,-0.0452,-0.0438,-0.0483,-0.0483,-0.0483,-0.0483,0,0.0128,0.0154,0.018,0.0185,0.0194,0.0187,0.0184,0.0138,0.0138,0.0045,0.0046,-0.0067,-0.0101,-0.0204,-0.0311,-0.0342,-0.0397,-0.0451,-0.0479,-0.0476,-0.0481,-0.0478,-0.0516,-0.0516,-0.0516,-0.0516,-0.0516,0,0.0178,0.0202,0.0204,0.0222,0.0265,0.0237,0.0255,0.0236,0.0206,0.0228,0.009,0.0102,-0.0091,-0.0151,-0.0271,-0.0347,-0.0357,-0.0457,-0.0472,-0.0467,-0.0463,-0.0521,-0.0522,-0.0515,-0.0516,-0.0516,-0.0516,0,0.0223,0.0226,0.0262,0.0274,0.0285,0.0308,0.033,0.0349,0.0317,0.0341,0.0321,0.0235,0.0165,0.0,-0.0153,-0.0261,-0.0367,-0.04,-0.0358,-0.0369,-0.0435,-0.0434,-0.0424,-0.0423,-0.0422,-0.0421,-0.0421,0,0.025,0.0271,0.0304,0.0336,0.0337,0.0369,0.0406,0.0398,0.0434,0.0452,0.0491,0.0414,0.0393,0.02,-0.004,-0.0227,-0.0286,-0.0336,-0.0408,-0.0411,-0.0427,-0.0428,-0.0429,-0.0395,-0.0394,-0.0393,-0.0392,0,0.0301,0.0301,0.0336,0.0402,0.0437,0.0499,0.0553,0.0614,0.0628,0.0677,0.0752,0.0732,0.0527,0.0319,0.0033,-0.0097,-0.0312,-0.0326,-0.0348,-0.0416,-0.0382,-0.0397,-0.04,-0.0386,-0.0387,-0.0387,-0.0388,-0.0388,0.0328,0.0361,0.0401,0.0467,0.0529,0.0624,0.0701,0.0777,0.0882,0.0948,0.0932,0.0893,0.0634,0.0263,0.0035,-0.0231,-0.0233,-0.0346,-0.0349,-0.0353,-0.035,-0.0316,-0.0306,-0.0306,-0.0306,-0.0306,-0.0306,0,0.0366,0.0402,0.0469,0.0552,0.0644,0.0664,0.0804,0.0874,0.1027,0.1049,0.1081,0.0841,0.0607,0.0324,-0.0071,-0.0288,-0.0332,-0.0344,-0.0376,-0.0379,-0.0382,-0.0384,-0.0347,-0.0348,-0.0348,-0.0349,0,0,0.0376,0.0447,0.0484,0.0635,0.0708,0.0839,0.0934,0.1045,0.1097,0.1122,0.1078,0.0964,0.0657,0.0361,0.0064,-0.0149,-0.0211,-0.018,-0.0124,-0.0129,-0.013,-0.0358,-0.036,0,0,0,0,0]}],[{"header":{"parameterUnit":"m.s-1","parameterCategory":2,"la1":30.2991,"la2":30.254,"lo1":-89.0895,"lo2":-89.0444,"dy":0.0017,"dx":0.0017,"nx":28,"ny":28,"refTime":"2023-11-03T21:00:00:Z","depth":"4","parameterNumber":2,"parameterNumberName":"U-component_of_CURRENTS"},"data":[0,0,0,0,0,0,0,0,0,0,0,0,0,0,0,0,0,0,0,0,0,0,0,0,0,0,0,0,0,0,0,0,0,0,0,0,0,0,0,0,0,0,0,0,0,0,0,0,0,0,0,0,0,0,0,0,0,0,0.084,0.0841,0,0.0899,0.09,0.0901,0.0953,0.0954,0.0954,0.0955,0.0937,0.0936,0.0935,0,0,0,0,0,0,0,0,0,0,0,0,0,0.0815,0.0815,0.084,0.0841,0.0841,0.0899,0.09,0.0901,0.0953,0.0954,0.0954,0.0955,0.0937,0.0936,0.0935,0,0,0,0,0,0,0,0,0,0,0,0,0,0.0846,0.0815,0.084,0.0874,0.0877,0.0899,0.09,0.0901,0.0953,0.0954,0.0954,0.0955,0.0938,0.0936,0.0935,0.091,0,0,0.0931,0.093,0,0,0,0,0,0,0,0,0.0844,0.0847,0.0868,0.0871,0.0875,0.0919,0.0885,0.09,0.0953,0.0925,0.0955,0.0956,0.0923,0.0923,0.0934,0.091,0.0909,0.0931,0.093,0.0929,0.0929,0,0,0,0,0,0,0,0.0842,0.0845,0.0864,0.0869,0.0873,0.0901,0.0905,0.0889,0.0918,0.0928,0.0931,0.0936,0.0924,0.0936,0.0934,0.0909,0.0931,0.0929,0.0928,0.0928,0.0967,0.0969,0,0,0,0,0,0,0.0829,0.0842,0.0863,0.0866,0.086,0.09,0.0906,0.0905,0.092,0.0924,0.0935,0.0938,0.0938,0.0936,0.0933,0.0973,0.0929,0.0928,0.0927,0.0966,0.0968,0.097,0,0,0,0,0,0,0.0829,0.083,0.086,0.0856,0.0861,0.0899,0.0898,0.0906,0.0941,0.0927,0.0929,0.0966,0.0938,0.0936,0.0948,0.0969,0.0927,0.0926,0.0963,0.0966,0.0969,0.1006,0,0,0,0,0,0,0.0827,0.083,0.0842,0.0854,0.0861,0.0887,0.0898,0.0906,0.0941,0.0946,0.0952,0.0951,0.0939,0.0951,0.0947,0.0967,0.0925,0.0961,0.0965,0.0968,0.1003,0.101,0.1017,0,0,0,0,0,0.0826,0.0833,0.0842,0.0845,0.087,0.0887,0.0894,0.0924,0.0941,0.0959,0.0972,0.0952,0.0972,0.0951,0.0946,0.0966,0.0959,0.0964,0.0968,0.1,0.1009,0.1016,0,0,0,0,0,0,0.0829,0.0839,0.0849,0.0859,0.0879,0.0896,0.0919,0.0936,0.0962,0.0975,0.0963,0.0962,0.0986,0.0975,0.0952,0.0993,0.0967,0.097,0.0993,0.1001,0.1008,0.0988,0.0923,0,0,0,0,0,0.0833,0.0843,0.0855,0.0867,0.0878,0.0903,0.0921,0.094,0.0957,0.0972,0.0979,0.099,0.0996,0.0998,0.1003,0.1011,0.1016,0.1028,0.1035,0.104,0.1025,0.1103,0.1115,0.0984,0.0984,0.0984,0,0,0.0839,0.0845,0.0853,0.0869,0.0889,0.0908,0.0917,0.0948,0.0969,0.0961,0.1001,0.1011,0.1007,0.1028,0.1038,0.1021,0.1076,0.1046,0.105,0.1031,0.1109,0.1122,0.1133,0.0987,0.0986,0.0986,0,0,0.0846,0.086,0.0872,0.0887,0.0917,0.093,0.0943,0.0974,0.0998,0.1026,0.1036,0.1064,0.1069,0.1079,0.1078,0.1125,0.1113,0.1133,0.1142,0.122,0.1231,0.124,0.1236,0.1246,0.1133,0.1133,0.1133,0,0.0857,0.0863,0.088,0.0894,0.0904,0.0941,0.0953,0.0983,0.1019,0.1042,0.1045,0.1106,0.1092,0.1128,0.1132,0.1138,0.1156,0.1106,0.1228,0.1238,0.1247,0.1241,0.1251,0.1135,0.1135,0.1135,0.1135,0,0.0869,0.0881,0.089,0.0915,0.0931,0.095,0.0979,0.1019,0.1051,0.1082,0.1143,0.1152,0.1197,0.1193,0.1157,0.122,0.12,0.1231,0.1201,0.1262,0.1252,0.1261,0.1139,0.1138,0.1137,0.1137,0,0,0.0862,0.0891,0.0895,0.0905,0.094,0.0952,0.0994,0.1038,0.1088,0.1139,0.1195,0.1209,0.1253,0.1255,0.1255,0.1279,0.133,0.1266,0.1269,0.1249,0.1451,0.1382,0.1384,0.1396,0.1399,0.1401,0.1406,0,0.0865,0.088,0.0896,0.092,0.0926,0.0966,0.1012,0.1065,0.111,0.1182,0.1225,0.1286,0.1271,0.1301,0.1337,0.1348,0.1362,0.1322,0.1403,0.1404,0.1328,0.1397,0.1409,0.1413,0.1415,0.1416,0.1417,0,0.0861,0.0869,0.0884,0.0921,0.0933,0.0969,0.104,0.1092,0.1196,0.1238,0.1324,0.1362,0.1422,0.1399,0.148,0.1464,0.1447,0.1435,0.1438,0.1363,0.1354,0.1348,0.1434,0.1433,0.1432,0.143,0.1429,0,0.0828,0.0855,0.0864,0.0874,0.0934,0.0969,0.1028,0.1123,0.1175,0.1294,0.1345,0.1451,0.1508,0.1553,0.1549,0.1529,0.1606,0.16,0.151,0.1503,0.1542,0.1532,0.1634,0.1634,0.1634,0.1634,0.1634,0,0.0804,0.0814,0.0862,0.087,0.0913,0.0974,0.1055,0.1127,0.1239,0.1309,0.1403,0.1453,0.1551,0.1603,0.159,0.1594,0.1677,0.1506,0.1518,0.1553,0.1544,0.1546,0.1536,0.1634,0.1634,0.1634,0.1634,0,0.0766,0.0795,0.081,0.0874,0.0898,0.0945,0.1057,0.1122,0.1247,0.1334,0.1375,0.1482,0.1568,0.163,0.1678,0.1641,0.1646,0.1608,0.1604,0.1616,0.1459,0.1451,0.1511,0.1509,0.1507,0.1506,0.1505,0,0.0742,0.0748,0.0801,0.0821,0.0855,0.0934,0.0994,0.1116,0.1172,0.1329,0.1355,0.1466,0.1529,0.1563,0.1626,0.1647,0.1612,0.1587,0.1531,0.145,0.1456,0.145,0.1444,0.1502,0.1502,0.1501,0.1501,0,0.0687,0.0722,0.0733,0.0788,0.0835,0.088,0.097,0.1001,0.115,0.1247,0.1315,0.1362,0.1445,0.1503,0.1543,0.1541,0.1608,0.1568,0.157,0.1517,0.144,0.1446,0.1442,0.1495,0.1496,0.1496,0.1497,0,0.0646,0.0649,0.0689,0.0733,0.0785,0.0825,0.0878,0.0949,0.1021,0.1189,0.1193,0.1327,0.1419,0.1445,0.1479,0.1502,0.146,0.1389,0.1399,0.1406,0.1376,0.1262,0.1277,0,0,0,0,0,0.0589,0.0598,0.0635,0.0674,0.0733,0.0774,0.0857,0.0919,0.1037,0.1058,0.1132,0.1204,0.1277,0.133,0.1333,0.1422,0.1462,0.1416,0.1384,0.1463,0.147,0.1447,0,0,0,0,0,0,0.0548,0.0573,0.0607,0.0622,0.0654,0.0711,0.0766,0.0844,0.0867,0.099,0.104,0.1123,0.1216,0.1274,0.1309,0.1327,0.1279,0.1491,0.1488,0.1459,0.1465,0.1471,0.145,0,0,0,0,0]},{"header":{"parameterUnit":"m.s-1","parameterCategory":2,"la1":30.2991,"la2":30.254,"lo1":-89.0895,"lo2":-89.0444,"dy":0.0017,"dx":0.0017,"nx":28,"ny":28,"refTime":"2023-11-03T21:00:00:Z","depth":"4","parameterNumber":3,"parameterNumberName":"V-component_of_CURRENTS"},"data":[0,0,0,0,0,0,0,0,0,0,0,0,0,0,0,0,0,0,0,0,0,0,0,0,0,0,0,0,0,0,0,0,0,0,0,0,0,0,0,0,0,0,0,0,0,0,0,0,0,0,0,0,0,0,0,0,0,0,0.024,0.024,0,0.0231,0.0231,0.0231,0.0221,0.0221,0.022,0.022,0.0288,0.029,0.0292,0,0,0,0,0,0,0,0,0,0,0,0,0,0.0226,0.0227,0.024,0.024,0.0239,0.0231,0.0231,0.0231,0.0221,0.0221,0.022,0.022,0.0287,0.029,0.0292,0,0,0,0,0,0,0,0,0,0,0,0,0,0.0227,0.0227,0.024,0.0233,0.0232,0.0231,0.0231,0.0231,0.0221,0.0221,0.022,0.022,0.0286,0.0289,0.0292,0.0318,0,0,0.0302,0.0303,0,0,0,0,0,0,0,0,0.0227,0.0228,0.0234,0.0233,0.0232,0.0226,0.0251,0.0263,0.0221,0.0226,0.022,0.022,0.0274,0.0278,0.0277,0.0321,0.0324,0.0302,0.0304,0.0305,0.0306,0,0,0,0,0,0,0,0.0227,0.0228,0.0237,0.0234,0.0233,0.0222,0.0222,0.0253,0.0254,0.0226,0.0225,0.0222,0.0274,0.0274,0.0279,0.0325,0.0302,0.0305,0.0306,0.0308,0.0396,0.0397,0,0,0,0,0,0,0.0228,0.0228,0.0237,0.0237,0.0228,0.0223,0.0223,0.0229,0.0252,0.0255,0.0223,0.0222,0.0269,0.0275,0.0282,0.0337,0.0305,0.0308,0.031,0.0395,0.0396,0.0397,0,0,0,0,0,0,0.0228,0.0229,0.0238,0.0231,0.0231,0.0223,0.023,0.0229,0.0227,0.0249,0.0253,0.0222,0.0269,0.0277,0.0323,0.0339,0.0309,0.0312,0.0395,0.0396,0.0396,0.0433,0,0,0,0,0,0,0.0228,0.0229,0.023,0.0231,0.0231,0.0241,0.023,0.0229,0.0226,0.0225,0.025,0.0255,0.027,0.0319,0.0326,0.0342,0.0314,0.0394,0.0395,0.0396,0.0431,0.0435,0.0438,0,0,0,0,0,0.0227,0.0232,0.0231,0.0231,0.0235,0.0241,0.024,0.0234,0.0226,0.023,0.0256,0.0254,0.0329,0.0323,0.0331,0.0348,0.0394,0.0395,0.0396,0.043,0.0434,0.0438,0,0,0,0,0,0,0.0223,0.0231,0.023,0.0235,0.0239,0.0239,0.0239,0.0234,0.0254,0.0259,0.0275,0.0284,0.0326,0.0332,0.0323,0.0373,0.0356,0.0359,0.0378,0.0383,0.0386,0.0381,0.0317,0,0,0,0,0,0.0224,0.0233,0.0236,0.0242,0.0243,0.0241,0.024,0.024,0.0257,0.0263,0.0281,0.0305,0.0337,0.0356,0.0381,0.0419,0.0386,0.0429,0.0432,0.0436,0.0435,0.0395,0.0395,0.0401,0.0401,0.0401,0,0,0.0224,0.0229,0.0234,0.0242,0.0244,0.0261,0.0241,0.0247,0.0268,0.0272,0.0309,0.0322,0.0349,0.0391,0.0408,0.04,0.0416,0.0437,0.044,0.0438,0.0396,0.0395,0.0395,0.0401,0.0401,0.0401,0,0,0.0235,0.0235,0.0248,0.0259,0.0266,0.0271,0.0273,0.0279,0.0286,0.0324,0.0331,0.035,0.04,0.0416,0.0433,0.0469,0.0436,0.0476,0.0496,0.0457,0.0456,0.0454,0.0406,0.04,0.0479,0.0479,0.0479,0,0.0234,0.0259,0.0252,0.0272,0.0292,0.0279,0.0309,0.0314,0.0336,0.0352,0.0342,0.0394,0.041,0.0457,0.047,0.0477,0.0446,0.0481,0.0461,0.0459,0.0456,0.0407,0.04,0.0481,0.048,0.048,0.048,0,0.026,0.0284,0.0295,0.0325,0.0341,0.0365,0.0378,0.039,0.0396,0.0402,0.0437,0.0447,0.0474,0.0479,0.0493,0.0497,0.0476,0.0468,0.0448,0.0458,0.0406,0.0398,0.0483,0.0483,0.0482,0.0482,0,0,0.0256,0.0306,0.0312,0.0346,0.0379,0.0397,0.0434,0.0466,0.0486,0.0489,0.0512,0.0546,0.0528,0.0544,0.0546,0.0514,0.047,0.049,0.0487,0.0439,0.0374,0.0333,0.032,0.0458,0.0457,0.0456,0.0341,0,0.0286,0.0347,0.0363,0.0429,0.0468,0.0482,0.0522,0.0545,0.0552,0.0564,0.0554,0.0577,0.0561,0.0571,0.0538,0.0491,0.0451,0.0501,0.0374,0.037,0.033,0.031,0.0453,0.0334,0.0333,0.0331,0.033,0,0.031,0.0357,0.0432,0.0505,0.0522,0.0559,0.0616,0.0647,0.0656,0.0658,0.0654,0.0635,0.0612,0.0583,0.0487,0.052,0.0452,0.0399,0.0393,0.0336,0.0314,0.0324,0.0315,0.0316,0.0317,0.0318,0.0319,0,0.0327,0.0403,0.0473,0.0501,0.0576,0.0615,0.0651,0.0681,0.0706,0.0709,0.0709,0.0673,0.0651,0.0562,0.0454,0.047,0.032,0.0325,0.0221,0.0216,0.0272,0.0275,0.0242,0.0242,0.0243,0.0243,0.0243,0,0.036,0.0412,0.049,0.053,0.0614,0.0653,0.0722,0.0741,0.0763,0.0778,0.0757,0.0738,0.0641,0.0548,0.045,0.0299,0.0311,0.0212,0.0182,0.029,0.0296,0.0265,0.027,0.0239,0.024,0.0241,0.0241,0,0.0368,0.0418,0.0499,0.0593,0.0626,0.0685,0.0764,0.0793,0.0818,0.0828,0.0828,0.0773,0.065,0.0532,0.0373,0.0292,0.0155,0.01,0.0209,0.0189,0.0079,0.0087,-0.0027,-0.0029,-0.0031,-0.0033,-0.0034,0,0.0379,0.0426,0.0537,0.0582,0.0629,0.0717,0.0768,0.0818,0.0836,0.0835,0.0824,0.0733,0.0674,0.0417,0.0299,0.0096,0.0076,0.0006,0.0058,0.0068,0.005,0.0061,0.0071,-0.0038,-0.0038,-0.0039,-0.0039,0,0.0402,0.044,0.0501,0.0594,0.0661,0.0734,0.0801,0.0817,0.0853,0.0874,0.08,0.069,0.0548,0.0384,0.0225,0.0085,0.0052,-0.0016,-0.0012,0.0036,0.0053,0.004,0.0053,-0.0046,-0.0045,-0.0045,-0.0044,0,0.0407,0.0443,0.0515,0.0591,0.0666,0.0717,0.0768,0.0784,0.081,0.0806,0.0769,0.0647,0.0584,0.0375,0.0223,0.0084,0.0062,0.003,0.0031,0.0038,0.0098,0.0132,0.0018,0,0,0,0,0,0.0409,0.0435,0.0502,0.0573,0.064,0.0684,0.0766,0.0805,0.0839,0.078,0.0777,0.0643,0.0432,0.0353,0.0202,0.0186,0.0037,0.0005,0.0001,-0.0087,-0.0078,-0.0021,0,0,0,0,0,0,0.0406,0.046,0.0488,0.0537,0.0572,0.0643,0.0695,0.0726,0.0702,0.0718,0.061,0.0583,0.0383,0.0496,0.0184,0.0147,0.0121,-0.0079,-0.0083,-0.0091,-0.0084,-0.0077,-0.0016,0,0,0,0,0]}]]